This is the latest recevied weather packets stored in our database for station/object ZS1OSS-13. If no packets are shown the sender has not sent any weather packets the latest 10 day(s).
| Time | Temp. | Humidity | Pressure | Rain* | Wind** | Luminosity | Snow |
|---|---|---|---|---|---|---|---|
| 1778227286 | 16.67° C | 72% | 1019 hPa | 0 mm | - | 289 W/m² | - |
| 1778226981 | 16.67° C | 72% | 1019.2 hPa | 0 mm | - | 255 W/m² | - |
| 1778226679 | 16.11° C | 73% | 1019 hPa | 0 mm | - | 232 W/m² | - |
| 1778226376 | 16.11° C | 73% | 1019 hPa | 0 mm | - | 237 W/m² | - |
| 1778226073 | 16.11° C | 73% | 1019 hPa | 0 mm | - | 226 W/m² | - |
| 1778225770 | 15.56° C | 75% | 1019.4 hPa | 0 mm | - | 212 W/m² | - |
| 1778225468 | 15° C | 77% | 1019.3 hPa | 0 mm | - | 200 W/m² | - |
| 1778225163 | 15° C | 77% | 1019.4 hPa | 0 mm | - | 186 W/m² | - |
| 1778224861 | 15° C | 77% | 1019.3 hPa | 0 mm | - | 176 W/m² | - |
| 1778224559 | 14.44° C | 78% | 1019.4 hPa | 0 mm | - | 154 W/m² | - |
| 1778224257 | 14.44° C | 78% | 1019.4 hPa | 0 mm | - | 147 W/m² | - |
| 1778223954 | 14.44° C | 78% | 1019.6 hPa | 0 mm | - | 130 W/m² | - |
| 1778223652 | 14.44° C | 77% | 1019.3 hPa | 0 mm | - | 124 W/m² | - |
| 1778223349 | 15° C | 76% | 1019.2 hPa | 0 mm | - | 111 W/m² | - |
| 1778223047 | 15° C | 76% | 1019.3 hPa | 0 mm | - | 98 W/m² | - |
| 1778222744 | 15° C | 76% | 1019.3 hPa | 0 mm | - | 59 W/m² | - |
| 1778222442 | 15° C | 76% | 1019.1 hPa | 0 mm | - | 47 W/m² | - |
| 1778222139 | 15° C | 76% | 1019.3 hPa | 0 mm | - | 42 W/m² | - |
| 1778221837 | 14.44° C | 77% | 1019 hPa | 0 mm | - | 39 W/m² | - |
| 1778221535 | 14.44° C | 79% | 1019 hPa | 0 mm | - | 35 W/m² | - |
| 1778221231 | 14.44° C | 80% | 1018.9 hPa | 0 mm | - | 31 W/m² | - |
| 1778220929 | 14.44° C | 82% | 1018.9 hPa | 0 mm | - | 27 W/m² | - |
| 1778220625 | 13.89° C | 83% | 1018.7 hPa | 0 mm | - | 24 W/m² | - |
| 1778220322 | 13.89° C | 84% | 1018.7 hPa | 0 mm | - | 21 W/m² | - |
| 1778220020 | 13.89° C | 85% | 1018.9 hPa | 0 mm | - | 19 W/m² | - |
* Rain latest hour (hover to see other rain measurements)
** Current wind speed in m/s (hover to see current wind gust speed)